User: anonymous   Login
Location: Darlington Observatory
(36.4817°N, 105.8156°W)
Time: 04:58:57
(UTC-06:00)
Language:

NOSS 3-3 (A) - Orbit

View from above orbital plane
View from above orbital plane
View from above satellite
View from above satellite

Ground track
Ground track

The orbit data is extracted from the following two-line orbital elements,

1 28537U 05004A   16240.01833273 0.00000000  00000-0  00000-0 0    07
2 28537  63.4284 218.0784 0239000 357.8040   2.1960 13.40716985    07
Epoch (UTC): 27 August 2016 00:26:23
Eccentricity: 0.0239000
inclination: 63.4284°
perigee height: 928 km
apogee height: 1285 km
right ascension of ascending node: 218.0784°
argument of perigee: 357.8040°
revolutions per day: 13.40716985
mean anomaly at epoch: 2.1960°
orbit number at epoch: 0

The dashed part of the orbit path shows where the satellite is in the earth's shadow,  

DLR